Find Starlink 34508

NORAD ID: 64601 Int'l Des: 2025-137 Owner: SPXS Country: US Constellation: starlink operational
LEOCIRCULAR

当前视图

正在加载3D地球...

About Starlink 34508

Starlink 34508 (NORAD 64601) is a starlink constellation satellite (v2 mini) launched Jun 25, 2025 by SPXS of US. It operates in LEO, CIRCULAR orbit with a mass of 575.00 kg.

即将过境

Passes for default location (London). Set your location on the main map for personalized predictions.

高度历史

Loading altitude history...

两行轨道根数

1 64601U 25137H 26263.95266449 .00015094 00000-0 45652-3 0 9993
2 64601 53.1588 147.3335 0001136 88.7074 271.4058 15.34431695 70645
Epoch: Sep 20, 2026 • Age: 6 hours

当前状态

高度 472.2 km
远地点 / 近地点 N/A
速度 7.63 km/s
星下点 -29.99°S, 46.35°E
发射日期 Jun 25, 2025
运行时间 1.2 years
类型 internet

技术详情

分类 Payload
质量 575.00 kg
干质量 530.00 kg
长度 0.30 m
跨度 29.00 m
形状 ? Box + pan
制造商 SPXS
平台类型 Starlink V2MO
阶段状态 In Orbit
所有者/国家 SPXS/US

Most Searched